Location: Ahausen
(50.4985°N, 8.2722°E)
Time: 06:20:34
(UTC+00:00)

Cosmos 1892 Rocket - Pass Details

Date: 18 September 2020
Orbit: 605 x 634 km, 82.5° (Epoch: 19 October)

Event Time Altitude Azimuth Distance (km) Brightness Sun altitude
Rises 20:14:16 0° 350° (N) 2,879 7.7 -24.7°
Reaches altitude 10° 20:16:30 10° 351° (N) 1,968 6.7 -24.9°
Enters shadow 20:20:07 60° 5° (N) 696 3.8 -25.4°
